[[{"header":{"parameterUnit":"m.s-1","parameterCategory":1,"la1":30.2991,"la2":30.254,"lo1":-89.0895,"lo2":-89.0444,"dy":0.0017,"dx":0.0017,"nx":28,"ny":28,"refTime":"2025-04-16T03:00:00:Z","depth":0,"parameterNumber":2,"parameterNumberName":"U-component_of_WINDS"},"data":[0,0,0,0,0,0,0,0,0,0,0,0,0,0,0,0,0,0,0,0,0,0,0,0,0,0,0,0,0,0,0,0,0,0,0,0,0,0,0,0,0,0,0,0,0,0,0,0,0,0,0,0,0,0,0,0,0,0,-0.0422,-0.0421,0,-0.0337,-0.0336,-0.0335,-0.0272,-0.0271,-0.0271,-0.027,-0.0182,-0.0181,-0.0179,0,0,0,0,0,0,0,0,0,0,0,0,0,-0.0527,-0.0525,-0.0422,-0.0421,-0.042,-0.0337,-0.0336,-0.0335,-0.0272,-0.0271,-0.0271,-0.027,-0.0183,-0.0181,-0.0179,0,0,0,0,0,0,0,0,0,0,0,0,0,-0.0465,-0.0524,-0.0422,-0.0379,-0.0374,-0.0338,-0.0336,-0.0335,-0.0272,-0.0271,-0.0271,-0.027,-0.0184,-0.0181,-0.0178,-0.0178,0,0,-0.017,-0.0169,0,0,0,0,0,0,0,0,-0.0469,-0.0462,-0.0386,-0.0382,-0.0376,-0.0314,-0.0341,-0.0282,-0.0273,-0.0311,-0.027,-0.0269,-0.0227,-0.0221,-0.0206,-0.0174,-0.017,-0.017,-0.0168,-0.0167,-0.0166,0,0,0,0,0,0,0,-0.0473,-0.0465,-0.0388,-0.0385,-0.0379,-0.0362,-0.0353,-0.0329,-0.0275,-0.0307,-0.0303,-0.0294,-0.0224,-0.0209,-0.0204,-0.0169,-0.017,-0.0167,-0.0166,-0.0165,-0.0129,-0.013,0,0,0,0,0,0,-0.0485,-0.0469,-0.0391,-0.0386,-0.0422,-0.0361,-0.035,-0.0335,-0.0275,-0.0265,-0.0294,-0.0291,-0.0214,-0.0207,-0.0201,-0.0195,-0.0167,-0.0164,-0.0163,-0.0128,-0.0129,-0.013,0,0,0,0,0,0,-0.0487,-0.0478,-0.0395,-0.0426,-0.0414,-0.036,-0.0344,-0.0334,-0.0319,-0.0265,-0.0254,-0.029,-0.0213,-0.0204,-0.0184,-0.0191,-0.0163,-0.0161,-0.0127,-0.0128,-0.0129,-0.0184,0,0,0,0,0,0,-0.049,-0.048,-0.048,-0.0427,-0.0413,-0.038,-0.0344,-0.0333,-0.0315,-0.0309,-0.0258,-0.0248,-0.0212,-0.0188,-0.0181,-0.0186,-0.0158,-0.0126,-0.0128,-0.0129,-0.0181,-0.0187,-0.0192,0,0,0,0,0,-0.0494,-0.0499,-0.048,-0.0471,-0.0412,-0.0381,-0.0373,-0.0332,-0.0316,-0.0315,-0.0279,-0.025,-0.0191,-0.0186,-0.0178,-0.0183,-0.0126,-0.0127,-0.0129,-0.0179,-0.0186,-0.0192,0,0,0,0,0,0,-0.0555,-0.0492,-0.047,-0.0458,-0.0425,-0.037,-0.0368,-0.034,-0.0312,-0.0308,-0.0257,-0.0246,-0.023,-0.0204,-0.02,-0.0178,-0.0154,-0.0154,-0.0196,-0.0201,-0.0207,-0.0213,-0.0156,0,0,0,0,0,-0.0567,-0.0548,-0.0493,-0.0487,-0.0472,-0.0423,-0.0408,-0.0379,-0.0343,-0.0329,-0.0292,-0.0258,-0.0231,-0.0215,-0.0188,-0.0177,-0.0164,-0.0176,-0.0181,-0.0185,-0.0186,-0.0176,-0.018,-0.0135,-0.0135,-0.0135,0,0,-0.0592,-0.0555,-0.0546,-0.0499,-0.047,-0.045,-0.0412,-0.0393,-0.0377,-0.0326,-0.0304,-0.0275,-0.0233,-0.0217,-0.0208,-0.0195,-0.0195,-0.0187,-0.0191,-0.0189,-0.0178,-0.0182,-0.0186,-0.0136,-0.0136,-0.0136,0,0,-0.0626,-0.0597,-0.0588,-0.056,-0.0516,-0.0483,-0.0481,-0.043,-0.0409,-0.0386,-0.0346,-0.0326,-0.0282,-0.0253,-0.0233,-0.0253,-0.0224,-0.0245,-0.0272,-0.0263,-0.0267,-0.0269,-0.0275,-0.0278,-0.0246,-0.0246,-0.0246,0,-0.0662,-0.0632,-0.0587,-0.057,-0.0549,-0.0501,-0.0491,-0.0465,-0.0415,-0.0402,-0.0388,-0.033,-0.0298,-0.0273,-0.0278,-0.0264,-0.0258,-0.0251,-0.027,-0.0272,-0.0274,-0.0279,-0.0282,-0.0249,-0.0249,-0.0248,-0.0248,0,-0.0677,-0.0656,-0.0654,-0.0606,-0.0586,-0.0572,-0.0524,-0.0508,-0.048,-0.0448,-0.0423,-0.0384,-0.0346,-0.0338,-0.0311,-0.0309,-0.0302,-0.0279,-0.0255,-0.0282,-0.0286,-0.0287,-0.0253,-0.0252,-0.0251,-0.025,0,0,-0.075,-0.0676,-0.0676,-0.0653,-0.06,-0.0582,-0.0565,-0.0529,-0.0515,-0.0482,-0.0465,-0.0428,-0.0406,-0.0383,-0.0351,-0.0343,-0.036,-0.0321,-0.0319,-0.0329,-0.0353,-0.0369,-0.0373,-0.034,-0.034,-0.034,-0.0356,0,-0.0775,-0.0743,-0.0701,-0.0683,-0.0661,-0.0614,-0.0599,-0.0564,-0.0533,-0.0509,-0.0474,-0.0448,-0.0422,-0.0407,-0.0397,-0.036,-0.0364,-0.0358,-0.0323,-0.0322,-0.0335,-0.0375,-0.0393,-0.041,-0.0357,-0.0357,-0.0357,0,-0.0802,-0.077,-0.075,-0.0696,-0.0686,-0.0673,-0.0635,-0.0613,-0.0572,-0.055,-0.0523,-0.0488,-0.0466,-0.0444,-0.0411,-0.0408,-0.0391,-0.037,-0.037,-0.0365,-0.0342,-0.037,-0.0414,-0.0417,-0.0359,-0.0359,-0.0359,0,-0.0855,-0.0807,-0.0788,-0.077,-0.0708,-0.07,-0.0673,-0.0631,-0.0611,-0.0577,-0.0563,-0.0527,-0.0507,-0.0479,-0.0435,-0.0424,-0.0407,-0.0382,-0.0386,-0.0388,-0.0385,-0.0386,-0.0427,-0.0375,-0.0375,-0.0375,-0.0375,0,-0.0889,-0.0878,-0.0811,-0.08,-0.0785,-0.0736,-0.0722,-0.0691,-0.0653,-0.0634,-0.059,-0.0572,-0.0515,-0.049,-0.0455,-0.0432,-0.0424,-0.0404,-0.0395,-0.0408,-0.041,-0.0396,-0.0393,-0.0376,-0.0376,-0.0375,-0.0375,0,-0.0946,-0.0902,-0.0877,-0.082,-0.0805,-0.0797,-0.0747,-0.0733,-0.0698,-0.0673,-0.0664,-0.061,-0.0577,-0.053,-0.0484,-0.046,-0.0443,-0.0428,-0.0457,-0.0451,-0.0458,-0.0458,-0.0491,-0.0492,-0.0441,-0.0441,-0.0442,0,-0.0971,-0.0961,-0.0902,-0.0885,-0.086,-0.0835,-0.0814,-0.0764,-0.0743,-0.0694,-0.0685,-0.0649,-0.0618,-0.0568,-0.0524,-0.0487,-0.0471,-0.0485,-0.0465,-0.0478,-0.047,-0.0471,-0.0469,-0.049,-0.0491,-0.0491,-0.0492,0,-0.1018,-0.0995,-0.0967,-0.093,-0.0906,-0.0874,-0.0841,-0.0829,-0.0772,-0.0751,-0.0717,-0.0693,-0.0644,-0.0609,-0.0566,-0.0537,-0.0504,-0.0498,-0.0497,-0.051,-0.0527,-0.0516,-0.0469,-0.0498,-0.0497,-0.0497,-0.0496,-0.0496,-0.1059,-0.1047,-0.1003,-0.0972,-0.0941,-0.091,-0.0893,-0.0856,-0.0827,-0.0784,-0.0756,-0.0723,-0.0679,-0.0617,-0.059,-0.0562,-0.0549,-0.0548,-0.0547,-0.0548,-0.0552,-0.0531,-0.0554,-0.0554,-0.0554,-0.0554,-0.0554,0,-0.1103,-0.1072,-0.1043,-0.0997,-0.0972,-0.0943,-0.0904,-0.0884,-0.0856,-0.0818,-0.0788,-0.0748,-0.0712,-0.0664,-0.0624,-0.0611,-0.0595,-0.0602,-0.0603,-0.0596,-0.0567,-0.0571,-0.0616,-0.0616,-0.0616,-0.0616,-0.0616,-0.0616,-0.1123,-0.1101,-0.1073,-0.1034,-0.1002,-0.097,-0.095,-0.092,-0.0889,-0.0846,-0.0816,-0.0785,-0.0742,-0.0698,-0.0663,-0.065,-0.0637,-0.0649,-0.0631,-0.0604,-0.0598,-0.0593,-0.0597,-0.0647,-0.0647,-0.0662,-0.0662,-0.0662]},{"header":{"parameterUnit":"m.s-1","parameterCategory":1,"la1":30.2991,"la2":30.254,"lo1":-89.0895,"lo2":-89.0444,"dy":0.0017,"dx":0.0017,"nx":28,"ny":28,"refTime":"2025-04-16T03:00:00:Z","depth":0,"parameterNumber":3,"parameterNumberName":"V-component_of_WINDS"},"data":[0,0,0,0,0,0,0,0,0,0,0,0,0,0,0,0,0,0,0,0,0,0,0,0,0,0,0,0,0,0,0,0,0,0,0,0,0,0,0,0,0,0,0,0,0,0,0,0,0,0,0,0,0,0,0,0,0,0,-4.3581,-4.3581,0,-4.3564,-4.3564,-4.3564,-4.3599,-4.36,-4.3601,-4.3602,-4.3579,-4.3577,-4.3575,0,0,0,0,0,0,0,0,0,0,0,0,0,-4.3639,-4.3638,-4.3581,-4.3581,-4.3581,-4.3564,-4.3564,-4.3564,-4.3599,-4.36,-4.3601,-4.3603,-4.3579,-4.3577,-4.3575,0,0,0,0,0,0,0,0,0,0,0,0,0,-4.3617,-4.3638,-4.3581,-4.3596,-4.3597,-4.3564,-4.3564,-4.3564,-4.3598,-4.36,-4.3602,-4.3603,-4.358,-4.3577,-4.3575,-4.3524,0,0,-4.3567,-4.3566,0,0,0,0,0,0,0,0,-4.3618,-4.3615,-4.3594,-4.3595,-4.3596,-4.3586,-4.3576,-4.355,-4.3598,-4.3598,-4.3602,-4.3604,-4.3579,-4.3577,-4.3569,-4.3523,-4.3522,-4.3567,-4.3565,-4.3564,-4.3563,0,0,0,0,0,0,0,-4.362,-4.3616,-4.3574,-4.3594,-4.3595,-4.3603,-4.3601,-4.3571,-4.3579,-4.3598,-4.36,-4.3598,-4.358,-4.3572,-4.3569,-4.3522,-4.3567,-4.3564,-4.3563,-4.3562,-4.3435,-4.3433,0,0,0,0,0,0,-4.362,-4.3617,-4.3575,-4.3574,-4.3612,-4.36,-4.3599,-4.3587,-4.3579,-4.358,-4.3597,-4.36,-4.3575,-4.3572,-4.3568,-4.3509,-4.3564,-4.3562,-4.356,-4.3436,-4.3434,-4.3432,0,0,0,0,0,0,-4.3621,-4.3616,-4.3575,-4.3596,-4.3592,-4.3597,-4.3584,-4.3586,-4.3578,-4.3578,-4.3579,-4.3587,-4.3577,-4.3572,-4.3536,-4.3509,-4.356,-4.3558,-4.3439,-4.3436,-4.3433,-4.339,0,0,0,0,0,0,-4.3623,-4.3616,-4.3598,-4.3596,-4.359,-4.3544,-4.3582,-4.3584,-4.3574,-4.3578,-4.357,-4.357,-4.3578,-4.3539,-4.3533,-4.3506,-4.3556,-4.3441,-4.3437,-4.3434,-4.3393,-4.3386,-4.3379,0,0,0,0,0,-4.3625,-4.3584,-4.3597,-4.3591,-4.3568,-4.3542,-4.3539,-4.355,-4.3572,-4.3553,-4.3554,-4.357,-4.3514,-4.3535,-4.3529,-4.35,-4.3443,-4.3438,-4.3434,-4.3397,-4.3387,-4.3379,0,0,0,0,0,0,-4.358,-4.3584,-4.3598,-4.3556,-4.3549,-4.3548,-4.3524,-4.354,-4.3525,-4.3529,-4.3542,-4.354,-4.3501,-4.3497,-4.3522,-4.3452,-4.3482,-4.3476,-4.3455,-4.3446,-4.3439,-4.3439,-4.3554,0,0,0,0,0,-4.3566,-4.3547,-4.3551,-4.3513,-4.3509,-4.3518,-4.3507,-4.3517,-4.3509,-4.3505,-4.3504,-4.3494,-4.3474,-4.346,-4.3442,-4.3394,-4.3393,-4.3372,-4.3365,-4.3359,-4.3353,-4.3328,-4.3319,-4.3419,-4.3419,-4.3419,0,0,-4.3534,-4.3535,-4.3521,-4.3504,-4.35,-4.3478,-4.3514,-4.349,-4.3473,-4.3501,-4.3467,-4.3466,-4.3456,-4.3414,-4.3395,-4.341,-4.3326,-4.3354,-4.3349,-4.3346,-4.3323,-4.3313,-4.3305,-4.3416,-4.3416,-4.3417,0,0,-4.3467,-4.3466,-4.3435,-4.3431,-4.3426,-4.3432,-4.3425,-4.3423,-4.3424,-4.3391,-4.3412,-4.3392,-4.3358,-4.335,-4.3342,-4.3276,-4.3291,-4.327,-4.3231,-4.3207,-4.3199,-4.3192,-4.3168,-4.3159,-4.3265,-4.3265,-4.3265,0,-4.3428,-4.3398,-4.3416,-4.3391,-4.3383,-4.3411,-4.3379,-4.3374,-4.3361,-4.3355,-4.3372,-4.3332,-4.3327,-4.3284,-4.3268,-4.3261,-4.3252,-4.3269,-4.3199,-4.3193,-4.3186,-4.3163,-4.3154,-4.3262,-4.3262,-4.3263,-4.3263,0,-4.3351,-4.333,-4.3306,-4.3297,-4.3286,-4.3257,-4.327,-4.3257,-4.3269,-4.3274,-4.324,-4.3237,-4.3219,-4.321,-4.322,-4.3169,-4.3178,-4.3198,-4.3227,-4.3174,-4.3152,-4.3144,-4.3258,-4.3259,-4.326,-4.3261,0,0,-4.325,-4.3255,-4.3245,-4.3242,-4.324,-4.3223,-4.3197,-4.3182,-4.3171,-4.3163,-4.314,-4.3112,-4.3131,-4.3122,-4.3132,-4.3111,-4.3059,-4.3133,-4.3133,-4.3118,-4.3002,-4.2986,-4.2976,-4.3071,-4.3069,-4.3068,-4.3003,0,-4.3182,-4.3138,-4.3155,-4.3109,-4.3091,-4.3119,-4.3096,-4.3092,-4.3096,-4.308,-4.3085,-4.3065,-4.3091,-4.3086,-4.3067,-4.3069,-4.3036,-4.3075,-4.3047,-4.3046,-4.3046,-4.2965,-4.2947,-4.2885,-4.2994,-4.2993,-4.2992,0,-4.3096,-4.3088,-4.3041,-4.3045,-4.3038,-4.3017,-4.3006,-4.2991,-4.2987,-4.2992,-4.2984,-4.2999,-4.2973,-4.3005,-4.2969,-4.2995,-4.2985,-4.2985,-4.2983,-4.2979,-4.3014,-4.2956,-4.2866,-4.2856,-4.2979,-4.298,-4.2981,0,-4.3026,-4.3003,-4.2972,-4.2969,-4.2973,-4.2958,-4.2958,-4.2957,-4.2948,-4.2938,-4.2932,-4.2919,-4.2911,-4.29,-4.2911,-4.2934,-4.2873,-4.2906,-4.2875,-4.2874,-4.2857,-4.2857,-4.2762,-4.2855,-4.2855,-4.2856,-4.2856,0,-4.2947,-4.2916,-4.2941,-4.2922,-4.2889,-4.291,-4.2876,-4.288,-4.2879,-4.286,-4.2885,-4.2866,-4.2884,-4.2867,-4.2877,-4.2845,-4.2841,-4.2843,-4.2845,-4.2839,-4.2839,-4.2831,-4.2834,-4.2853,-4.2854,-4.2854,-4.2855,0,-4.286,-4.2876,-4.2845,-4.2853,-4.2854,-4.283,-4.2836,-4.2818,-4.2827,-4.2803,-4.2798,-4.281,-4.2792,-4.2804,-4.2785,-4.2791,-4.2749,-4.2758,-4.275,-4.2752,-4.2719,-4.2721,-4.2613,-4.26,-4.2704,-4.2703,-4.2702,0,-4.2807,-4.2786,-4.2793,-4.2784,-4.2783,-4.2768,-4.276,-4.278,-4.2771,-4.2767,-4.2749,-4.2734,-4.2723,-4.2692,-4.2698,-4.2684,-4.2692,-4.2655,-4.2689,-4.2685,-4.2689,-4.2689,-4.2687,-4.2647,-4.2646,-4.2645,-4.2644,0,-4.2712,-4.2722,-4.271,-4.2703,-4.2693,-4.2687,-4.2683,-4.2674,-4.2695,-4.2683,-4.2666,-4.2658,-4.2641,-4.2625,-4.2614,-4.2613,-4.2631,-4.2634,-4.2626,-4.2618,-4.2614,-4.2614,-4.2729,-4.2635,-4.2636,-4.2637,-4.2637,-4.2638,-4.2639,-4.2622,-4.2625,-4.2612,-4.2612,-4.2609,-4.2593,-4.2601,-4.2588,-4.2577,-4.2591,-4.257,-4.2569,-4.2557,-4.2555,-4.2538,-4.2553,-4.2541,-4.2538,-4.2534,-4.2529,-4.2619,-4.2537,-4.2537,-4.2537,-4.2538,-4.2538,0,-4.2543,-4.2548,-4.2536,-4.2532,-4.2522,-4.2545,-4.2542,-4.2531,-4.2514,-4.2513,-4.2503,-4.2484,-4.247,-4.2477,-4.2465,-4.245,-4.2458,-4.2446,-4.2446,-4.2445,-4.2517,-4.2525,-4.244,-4.244,-4.244,-4.244,-4.244,-4.244,-4.2492,-4.2463,-4.2474,-4.2446,-4.2451,-4.2433,-4.243,-4.2427,-4.2426,-4.2406,-4.2395,-4.2401,-4.2403,-4.2392,-4.238,-4.2382,-4.2375,-4.236,-4.2365,-4.243,-4.244,-4.2449,-4.2456,-4.2359,-4.2358,-4.2294,-4.2293,-4.2293]}]]